Flag for India Weather past 2 weeks in Nagercoil, Tamil Nadu, India

Now
88 °F

Scattered clouds.


Feels Like: 100 °F
Forecast: 81 / 90 °F
Wind: 6 mph from West

Location: Thiruvananthapuram

Current Time: May 30, 2015 at 12:16:21 PM

Latest Report: May 30, 2015 at 11:40 AM


Visibility: 4 mi

Pressure: 29.74 "Hg

Humidity: 70%

Dew point: 77 °F

Location of NagercoilLocation

Historic Weather in Nagercoil — Graph

°F

Nagercoil temperature yesterday

Maximum temperature yesterday: 91 °F (at 12:10 PM)
Minimum temperature yesterday: 79 °F (at 1:40 AM)
Average temperature yesterday: 84 °F

Past Weeks' High & Low Weather Summary

 TemperatureHumidityPressure
High91 °F (May 22, 3:10 PM)100% (May 17, 4:10 AM)29.86 "Hg (May 17, 4:10 AM)
Low73 °F (May 17, 4:10 AM)59% (May 23, 12:10 PM)29.65 "Hg (May 28, 3:10 PM)
Average82 °F78%29.77 "Hg
* Reported May 15 10:40 AM — May 30 11:10 AM, Nagercoil, Weather by CustomWeather, © 2015

Note: Actual official high and low records may vary slightly from our data, if they occured in-between our weather recording intervals... More about our weather records

Advertising

Nagercoil weather history for previous 24 hours

 ConditionsComfort  
Time TempWeatherWind HumidityBarometerVisibility
11:10 AM
Sat, May 30
88 °FScattered clouds.9 mph70%29.77 "Hg4 mi
10:40 AM88 °FScattered clouds.9 mph70%29.77 "Hg3 mi
10:10 AM86 °FScattered clouds.6 mph75%29.77 "Hg3 mi
9:40 AM86 °FScattered clouds.5 mph75%29.77 "Hg3 mi
8:40 AM86 °FHaze.5 mph75%29.77 "Hg2 mi
8:10 AM84 °FHaze.5 mph79%29.77 "Hg2 mi
7:10 AM82 °FHaze.No wind79%29.74 "Hg1 mi
6:40 AM81 °FHaze.No wind84%29.74 "Hg1 mi
6:10 AM79 °FHaze.No wind89%29.71 "Hg1 mi
5:40 AM79 °FPassing clouds.No wind89%29.71 "Hg2 mi
5:10 AM79 °FPassing clouds.3 mph89%29.71 "Hg2 mi
4:40 AM79 °FPassing clouds.3 mph89%29.71 "Hg2 mi
4:10 AM81 °FPassing clouds.5 mph84%29.71 "Hg2 mi
3:40 AM81 °FPassing clouds.3 mph84%29.71 "Hg2 mi
3:10 AM81 °FPassing clouds.5 mph84%29.71 "Hg2 mi
2:40 AM81 °FPassing clouds.6 mph84%29.71 "Hg2 mi
2:10 AM81 °FPassing clouds.6 mph84%29.71 "Hg2 mi
1:40 AM81 °FPassing clouds.6 mph84%29.74 "Hg2 mi
12:40 AM82 °FPassing clouds.5 mph79%29.77 "Hg2 mi
11:40 PM
Fri, May 29
82 °FPassing clouds.5 mph79%29.77 "Hg2 mi
10:40 PM82 °FPassing clouds.5 mph79%29.77 "Hg2 mi
10:10 PM82 °FPassing clouds.5 mph79%29.80 "Hg2 mi
9:40 PM82 °FPassing clouds.3 mph79%29.80 "Hg2 mi
8:40 PM82 °FRain. Passing clouds.5 mph79%29.77 "Hg2 mi
7:10 PM84 °FThunderstorms. Passing clouds.7 mph79%29.77 "Hg2 mi
6:40 PM86 °FThunderstorms. Scattered clouds.7 mph79%29.71 "Hg3 mi
6:10 PM86 °FThunderstorms. Cloudy.7 mph79%29.71 "Hg3 mi
5:40 PM86 °FThunderstorms. Scattered clouds.7 mph79%29.71 "Hg3 mi
4:40 PM88 °FThunderstorms. Scattered clouds.9 mph70%29.71 "Hg4 mi
3:40 PM88 °FPassing clouds.9 mph70%29.68 "Hg4 mi
2:40 PM90 °FPassing clouds.9 mph67%29.71 "Hg4 mi
2:10 PM88 °FPassing clouds.9 mph70%29.71 "HgN/A
1:40 PM88 °FPassing clouds.12 mph66%29.74 "Hg4 mi
1:10 PM90 °FPassing clouds.12 mph67%29.74 "Hg4 mi
12:40 PM90 °FPassing clouds.12 mph67%29.77 "Hg4 mi
12:10 PM91 °FPassing clouds.12 mph63%29.77 "Hg4 mi
Weather by CustomWeather, © 2015

See weather overviewHow to use our weather pages